DAL1766 MMCZ-KATL

Flight info

Callsign DAL1766
Flight time N/A
Altitude 35000
Route CZM7C CZM UB881 CUN UM219 MYDIA M219 CIGAR M215 KNOST DCT CAMJO DCT LAIRI DCT LARZZ JJEDI4
Aircraft B738/M-SDE2E3FGHIRWXY/LB1

Departure

Time 2026-05-07 19:08
Airport Cozumel International Airport (MMCZ)

Arrival

Time N/A
Airport Hartsfield Jackson Atlanta International Airport (KATL)
Time Latitude Longitude Altitude Speed Heading
2026-05-07 18:50 20.51247 -86.93069 20 ft 0 kts
2026-05-07 19:02 20.51248 -86.93069 17 ft 0 kts
2026-05-07 19:03 20.51272 -86.93064 18 ft 7 kts 11°
2026-05-07 19:03 20.51339 -86.93045 17 ft 11 kts 17°
2026-05-07 19:03 20.51412 -86.93046 18 ft 11 kts 340°
2026-05-07 19:03 20.51476 -86.93089 18 ft 13 kts 325°
2026-05-07 19:04 20.51574 -86.93161 18 ft 19 kts 326°
2026-05-07 19:04 20.51687 -86.93203 16 ft 14 kts 11°
2026-05-07 19:04 20.51762 -86.93196 17 ft 11 kts 321°
2026-05-07 19:04 20.51800 -86.93266 17 ft 11 kts 296°
2026-05-07 19:05 20.51831 -86.93338 17 ft 10 kts 295°
2026-05-07 19:05 20.51863 -86.93406 17 ft 10 kts 296°
2026-05-07 19:05 20.51894 -86.93473 17 ft 10 kts 296°
2026-05-07 19:05 20.51923 -86.93540 18 ft 11 kts 294°
2026-05-07 19:06 20.51959 -86.93617 18 ft 12 kts 297°
2026-05-07 19:06 20.52029 -86.93770 18 ft 11 kts 296°
2026-05-07 19:06 20.52039 -86.93849 18 ft 11 kts 258°
2026-05-07 19:07 20.52018 -86.93925 19 ft 11 kts 253°
2026-05-07 19:07 20.51997 -86.93974 20 ft 4 kts 176°
2026-05-07 19:07 20.51982 -86.93939 19 ft 13 kts 108°
2026-05-07 19:07 20.51852 -86.93637 19 ft 77 kts 117°
2026-05-07 19:08 20.51527 -86.92930 18 ft 132 kts 116°
2026-05-07 19:08 20.51074 -86.91898 96 ft 169 kts 116°
2026-05-07 19:08 20.50581 -86.90755 746 ft 170 kts 114°
2026-05-07 19:08 20.50143 -86.89552 1450 ft 175 kts 103°
2026-05-07 19:09 20.50284 -86.88197 1837 ft 197 kts 79°
2026-05-07 19:09 20.50629 -86.86695 2054 ft 220 kts 81°
2026-05-07 19:09 20.50990 -86.85059 2444 ft 229 kts 81°
2026-05-07 19:09 20.51368 -86.83375 2866 ft 240 kts 80°
2026-05-07 19:10 20.51774 -86.81570 3255 ft 257 kts 80°
2026-05-07 19:10 20.52201 -86.79684 3859 ft 263 kts 80°
2026-05-07 19:10 20.52633 -86.77783 4597 ft 264 kts 80°
2026-05-07 19:10 20.53070 -86.75864 5273 ft 270 kts 78°
2026-05-07 19:11 20.53928 -86.74064 5905 ft 281 kts 51°
2026-05-07 19:11 20.55287 -86.72539 6586 ft 285 kts 48°
2026-05-07 19:11 20.56680 -86.71017 7210 ft 287 kts 49°
2026-05-07 19:11 20.58058 -86.69506 7866 ft 288 kts 48°
2026-05-07 19:12 20.59458 -86.67969 8525 ft 290 kts 47°
2026-05-07 19:12 20.60869 -86.66412 9161 ft 293 kts 48°
2026-05-07 19:12 20.62290 -86.64844 9817 ft 294 kts 47°
2026-05-07 19:12 20.63722 -86.63262 10316 ft 301 kts 48°
2026-05-07 19:13 20.65229 -86.61592 10444 ft 321 kts 48°
2026-05-07 19:13 20.66817 -86.59828 10583 ft 338 kts 48°
2026-05-07 19:13 20.68489 -86.57975 10716 ft 354 kts 49°
2026-05-07 19:13 20.70231 -86.56048 10976 ft 364 kts 48°
2026-05-07 19:14 20.71970 -86.54117 11409 ft 368 kts 47°
2026-05-07 19:14 20.73750 -86.52139 11949 ft 368 kts 49°
2026-05-07 19:14 20.75523 -86.50166 12451 ft 371 kts 49°
2026-05-07 19:14 20.77302 -86.48160 12957 ft 372 kts 48°
2026-05-07 19:15 20.79085 -86.46140 13435 ft 376 kts 49°
2026-05-07 19:15 20.80889 -86.44095 13879 ft 379 kts 49°
2026-05-07 19:15 20.82848 -86.42203 14334 ft 384 kts 34°
2026-05-07 19:15 20.85322 -86.41119 14850 ft 389 kts 14°
2026-05-07 19:16 20.88040 -86.40885 15302 ft 397 kts 357°
2026-05-07 19:16 20.90768 -86.41466 15767 ft 402 kts 348°
2026-05-07 19:16 20.93484 -86.42224 16227 ft 404 kts 347°
2026-05-07 19:16 20.96207 -86.43012 16687 ft 406 kts 347°
2026-05-07 19:17 20.98945 -86.43798 17142 ft 408 kts 348°
2026-05-07 19:17 21.01698 -86.44571 17604 ft 410 kts 348°
2026-05-07 19:17 21.04475 -86.45338 18055 ft 412 kts 348°
2026-05-07 19:17 21.07257 -86.46098 18472 ft 414 kts 348°
2026-05-07 19:18 21.10066 -86.46862 18805 ft 418 kts 348°
2026-05-07 19:18 21.12898 -86.47632 19100 ft 423 kts 348°
2026-05-07 19:18 21.15764 -86.48413 19407 ft 427 kts 347°
2026-05-07 19:18 21.18650 -86.49201 19753 ft 429 kts 347°
2026-05-07 19:19 21.21566 -86.49995 20041 ft 434 kts 347°
2026-05-07 19:19 21.24496 -86.50792 20416 ft 435 kts 347°
2026-05-07 19:19 21.27455 -86.51600 20651 ft 441 kts 347°
2026-05-07 19:19 21.30434 -86.52414 21060 ft 441 kts 346°
2026-05-07 19:20 21.33429 -86.53233 21277 ft 447 kts 346°
2026-05-07 19:20 21.36407 -86.54047 21686 ft 447 kts 346°
2026-05-07 19:20 21.39437 -86.54875 21920 ft 452 kts 346°
2026-05-07 19:20 21.42492 -86.55711 22315 ft 452 kts 346°
2026-05-07 19:21 21.45548 -86.56547 22590 ft 456 kts 346°
2026-05-07 19:21 21.48643 -86.57394 22827 ft 460 kts 345°
2026-05-07 19:21 21.51757 -86.58247 23130 ft 462 kts 345°
2026-05-07 19:21 21.54878 -86.59102 23438 ft 464 kts 345°
2026-05-07 19:22 21.58015 -86.59962 23715 ft 466 kts 345°
2026-05-07 19:22 21.61161 -86.60825 24035 ft 465 kts 345°
2026-05-07 19:22 21.64246 -86.61670 24858 ft 450 kts 345°
2026-05-07 19:22 21.67223 -86.62486 25865 ft 431 kts 344°
2026-05-07 19:23 21.70072 -86.63267 26824 ft 417 kts 344°
2026-05-07 19:23 21.72883 -86.64040 27283 ft 417 kts 344°
2026-05-07 19:23 21.75716 -86.64821 27500 ft 423 kts 344°
2026-05-07 19:23 21.78582 -86.65610 27774 ft 427 kts 343°
2026-05-07 19:24 21.80490 -86.66135 27987 ft 428 kts 343°
2026-05-07 19:24 21.84389 -86.66982 27969 ft 435 kts 358°
2026-05-07 19:24 21.87398 -86.66620 28155 ft 438 kts 11°
2026-05-07 19:24 21.90382 -86.65923 28567 ft 438 kts 11°
2026-05-07 19:25 21.93346 -86.65196 28995 ft 437 kts 12°
2026-05-07 19:25 21.95351 -86.64704 29253 ft 438 kts 11°
2026-05-07 19:25 21.98326 -86.63982 29584 ft 439 kts 11°
2026-05-07 19:25 22.01286 -86.63279 29877 ft 442 kts 11°
2026-05-07 19:26 22.04299 -86.62574 30149 ft 444 kts 11°
2026-05-07 19:26 22.07322 -86.61873 30414 ft 445 kts 10°
2026-05-07 19:26 22.10355 -86.61173 30706 ft 446 kts 10°
2026-05-07 19:26 22.13396 -86.60472 30976 ft 447 kts 10°
2026-05-07 19:27 22.16446 -86.59769 31250 ft 449 kts 10°
2026-05-07 19:27 22.19509 -86.59061 31514 ft 450 kts 10°
2026-05-07 19:27 22.22574 -86.58353 31767 ft 451 kts
2026-05-07 19:27 22.25645 -86.57642 32016 ft 452 kts
2026-05-07 19:28 22.28729 -86.56928 32261 ft 453 kts
2026-05-07 19:28 22.31814 -86.56213 32508 ft 455 kts
2026-05-07 19:28 22.34913 -86.55495 32744 ft 455 kts
2026-05-07 19:28 22.38018 -86.54775 32970 ft 457 kts
2026-05-07 19:29 22.41129 -86.54054 33187 ft 458 kts
2026-05-07 19:29 22.44250 -86.53330 33414 ft 459 kts
2026-05-07 19:29 22.47379 -86.52604 33646 ft 460 kts
2026-05-07 19:29 22.50509 -86.51877 33857 ft 461 kts
2026-05-07 19:30 22.53608 -86.51157 34038 ft 462 kts
2026-05-07 19:30 22.56752 -86.50426 34211 ft 463 kts
2026-05-07 19:30 22.59907 -86.49691 34388 ft 464 kts
2026-05-07 19:30 22.63059 -86.48958 34586 ft 464 kts
2026-05-07 19:31 22.66216 -86.48222 34756 ft 464 kts
2026-05-07 19:31 22.69378 -86.47485 34931 ft 465 kts
2026-05-07 19:31 22.75744 -86.46001 34997 ft 471 kts
2026-05-07 19:32 22.82176 -86.44503 34999 ft 474 kts
2026-05-07 19:32 22.88652 -86.42992 34999 ft 476 kts
2026-05-07 19:33 22.95133 -86.41478 34996 ft 476 kts
2026-05-07 19:33 23.01610 -86.39963 34995 ft 476 kts
2026-05-07 19:34 23.08078 -86.38449 35002 ft 475 kts
2026-05-07 19:34 23.14529 -86.36937 34994 ft 473 kts
2026-05-07 19:35 23.20924 -86.35437 34998 ft 472 kts
2026-05-07 19:35 23.27337 -86.33932 34999 ft 470 kts
2026-05-07 19:36 23.33737 -86.32429 35001 ft 469 kts
2026-05-07 19:36 23.40071 -86.30940 35012 ft 468 kts
2026-05-07 19:37 23.46433 -86.29443 35005 ft 468 kts
2026-05-07 19:37 23.52795 -86.27944 35006 ft 467 kts
2026-05-07 19:38 23.59157 -86.26444 35006 ft 468 kts
2026-05-07 19:38 23.65525 -86.24941 35007 ft 468 kts
2026-05-07 19:39 23.71893 -86.23436 35016 ft 469 kts
2026-05-07 19:39 23.78274 -86.21926 35010 ft 470 kts
2026-05-07 19:40 23.84672 -86.20411 35008 ft 470 kts
2026-05-07 19:40 23.91071 -86.18894 35008 ft 471 kts
2026-05-07 19:41 23.97477 -86.17374 35009 ft 471 kts
2026-05-07 19:41 24.03829 -86.15703 35006 ft 475 kts 15°
2026-05-07 19:42 24.09795 -86.12472 35016 ft 481 kts 26°
2026-05-07 19:42 24.15583 -86.08789 35008 ft 481 kts 26°
2026-05-07 19:43 24.21384 -86.05123 35012 ft 481 kts 26°
2026-05-07 19:43 24.27192 -86.01504 35014 ft 480 kts 25°
2026-05-07 19:44 24.33006 -85.97898 35013 ft 480 kts 25°
2026-05-07 19:44 24.38813 -85.94295 35013 ft 480 kts 25°
2026-05-07 19:45 24.44629 -85.90679 35013 ft 479 kts 25°
2026-05-07 19:45 24.50434 -85.87065 35017 ft 479 kts 25°
2026-05-07 19:46 24.56240 -85.83446 35017 ft 479 kts 25°
2026-05-07 19:46 24.62003 -85.79850 35016 ft 479 kts 25°
2026-05-07 19:47 24.67802 -85.76228 35016 ft 479 kts 25°
2026-05-07 19:47 24.73606 -85.72599 35020 ft 479 kts 25°
2026-05-07 19:48 24.79410 -85.68966 35019 ft 480 kts 25°
2026-05-07 19:48 24.85212 -85.65330 35019 ft 480 kts 25°
2026-05-07 19:49 24.91019 -85.61687 35018 ft 480 kts 25°
2026-05-07 19:49 24.96786 -85.58064 35029 ft 480 kts 25°
2026-05-07 19:50 25.02594 -85.54412 35023 ft 481 kts 25°
2026-05-07 19:50 25.08405 -85.50755 35022 ft 481 kts 25°
2026-05-07 19:51 25.14219 -85.47088 35022 ft 481 kts 25°
2026-05-07 19:51 25.20024 -85.43418 35022 ft 481 kts 26°
2026-05-07 19:52 25.25831 -85.39741 35028 ft 481 kts 25°
2026-05-07 19:52 25.31620 -85.36140 35017 ft 478 kts 20°